Zurück zum Katalog

IRIDIUM 33 DEB

AktivPO
NORAD 36083·DEBRIS·🇺🇸 United States

Gestartet Sep 14, 1997 von Baikonur Cosmodrome

Loading…

Nächste Überflüge (nächste 24 Stunden)

TLE

AktuellSource: Space-Track

Epoche: Sep 11, 2026, 07:35 UTC

1 36083U 97051VQ  26254.31640029  .00000894  00000-0  25443-3 0  9998
2 36083  86.3376 276.7228 0027816  48.1897 312.1674 14.44067827893827

Verfolge IRIDIUM 33 DEB in Echtzeit mit AllMySat

Download on the App Store